EHI
42 38 39 29 9 1 0 0 0 0 0 0 0 0 0 0 0 0 0 0 0 0 0 0 0 0 0 0 0 0 0 0 0 0 0 0 0 0 0 0 0 0 0
49 43 43 34 13 2 0 0 0 0 0 0 0 0 0 0 0 0 0 0 0 0 0 0 0 0 0 0 0 0 0 0 0 0 0 0 0 0 0 0 0 0 0
53 42 40 36 19 6 1 0 0 0 0 0 0 0 0 0 0 0 0 0 0 0 0 0 0 0 0 0 0 0 0 0 0 0 0 0 0 0 0 0 0 0 0
48 38 35 36 23 9 3 1 1 0 0 0 0 0 0 0 0 0 0 0 0 0 0 0 0 0 0 0 0 0 0 0 0 0 0 0 0 0 0 0 0 0 0
46 42 41 38 25 11 5 3 2 1 0 0 0 0 0 0 0 0 0 0 0 0 0 0 0 0 0 0 0 0 0 1 1 0 0 0 0 0 0 0 0 0 0
52 51 49 43 28 13 6 3 2 1 0 0 0 0 0 0 0 0 0 0 0 0 0 0 0 0 0 0 0 0 2 4 3 1 0 0 0 0 0 0 0 0 0
63 57 50 45 32 15 6 3 2 1 0 0 0 0 0 0 0 0 0 0 0 0 0 0 0 0 0 0 0 1 4 7 4 1 1 0 0 0 0 0 0 0 0
71 61 50 43 32 16 6 3 2 1 0 0 0 0 0 0 0 0 0 0 0 0 0 0 0 0 0 0 0 1 5 8 4 0 0 0 0 0 0 0 0 0 0
75 64 49 38 27 14 6 3 1 1 0 0 0 0 0 0 0 0 0 0 0 0 0 0 0 0 0 0 0 1 5 8 4 0 0 0 0 0 0 0 0 0 0
75 64 48 35 23 11 5 2 1 1 0 0 0 0 0 0 0 0 0 0 0 0 0 0 0 0 0 0 1 2 5 6 3 1 1 0 0 0 0 0 0 0 0
78 64 50 38 23 9 4 2 1 1 0 0 0 0 0 0 0 0 0 0 0 0 0 0 0 0 0 0 1 2 3 3 2 1 1 0 0 0 0 0 0 0 0
84 71 57 45 25 12 9 6 2 1 0 0 0 0 0 0 0 1 1 0 0 0 0 0 0 0 0 0 1 1 2 2 1 1 1 1 0 0 0 0 0 0 0
88 80 70 54 34 25 23 14 5 2 1 0 1 1 0 1 1 2 2 0 0 0 0 0 0 0 0 0 0 1 1 1 1 0 1 1 1 0 0 0 0 0 0
89 85 80 68 54 49 42 25 11 7 5 3 4 3 2 2 4 4 2 1 0 0 0 0 1 0 0 0 0 1 1 1 1 0 1 1 1 0 0 0 0 0 0
90 87 86 81 74 69 59 38 25 21 15 12 11 8 4 5 9 8 4 2 1 1 0 0 0 0 0 0 1 2 2 1 1 0 0 0 0 0 0 0 0 0 0
90 89 88 87 82 79 69 52 39 34 29 25 21 16 11 12 17 16 9 4 4 5 4 2 0 0 0 0 2 3 3 1 0 0 0 0 0 0 0 0 0 0 0
90 90 87 84 82 80 71 58 46 40 40 41 38 30 23 24 25 21 11 6 9 13 11 4 0 0 1 1 1 2 2 1 0 0 0 0 0 0 0 0 0 0 0
87 88 85 79 78 77 71 61 52 48 51 55 51 40 32 30 27 20 12 10 14 15 11 5 1 1 2 2 2 1 0 0 0 0 1 1 0 0 0 0 0 0 0
83 84 82 78 78 78 73 67 61 60 63 62 53 41 35 31 24 17 15 15 14 11 7 4 3 3 3 3 2 1 0 0 0 0 0 1 2 2 1 1 1 1 1
81 81 79 77 78 77 74 69 64 64 66 62 51 43 39 32 22 16 16 18 14 9 7 6 5 6 4 1 1 0 0 0 0 0 0 1 3 4 4 3 1 1 0
79 79 77 76 75 74 72 67 60 60 63 60 52 47 41 32 23 17 16 17 13 11 10 8 7 6 4 1 0 0 0 0 0 0 1 1 2 4 4 4 4 3 2
74 75 74 74 73 71 69 65 58 55 56 55 53 48 40 32 24 19 19 16 14 15 13 9 7 5 3 1 0 0 0 0 0 0 0 0 1 2 3 4 6 7 6
66 65 66 69 70 68 65 61 55 48 45 47 51 46 39 34 25 20 21 19 16 16 13 8 4 2 1 0 0 0 0 0 0 0 0 0 0 1 2 2 5 7 7
57 56 58 62 66 64 60 55 47 39 38 42 46 44 40 36 26 20 21 21 18 15 11 5 1 0 0 0 0 0 0 1 0 0 0 0 0 0 0 1 2 4 4
52 51 52 56 60 58 54 49 40 33 35 40 43 43 42 36 25 18 18 19 18 15 11 6 3 2 1 1 1 1 0 0 0 0 0 0 0 0 0 0 1 2 3
49 48 50 53 56 55 51 45 36 30 32 39 43 43 41 35 25 17 16 17 18 17 13 9 7 4 2 2 2 2 1 0 0 0 0 0 1 1 1 1 2 2 2
Wind_Speed
18 19 18 17 17 16 15 15 14 14 14 14 14 14 14 14 14 14 14 14 14 14 14 14 14 14 14 15 15 15 16 16 16 17 17 16 15 13 12 14 16 13 16
22 20 19 18 17 16 15 15 14 14 14 14 14 14 14 14 14 14 14 14 14 14 14 14 14 14 14 14 14 14 14 14 15 16 17 16 15 13 13 14 16 11 15
22 20 19 17 17 16 16 15 14 14 14 14 13 13 13 13 13 13 13 13 14 14 14 14 14 14 14 13 13 12 12 12 12 13 14 11 12 15 16 18 17 15 15
22 19 18 19 17 17 16 15 15 14 14 13 13 13 13 13 13 13 13 13 14 14 14 14 14 14 13 12 11 10 9 9 8 8 6 9 10 15 16 16 15 15 14
20 19 19 20 18 17 16 15 14 14 14 13 13 13 13 13 13 13 13 14 14 14 14 13 13 13 12 11 9 7 5 4 4 6 9 10 9 13 15 15 14 14 14
21 20 20 20 19 17 16 15 15 14 14 13 13 13 13 13 13 13 13 14 14 13 13 13 13 12 11 9 7 5 2 1 1 8 9 10 9 12 13 14 14 13 13
20 20 19 20 19 18 16 15 15 14 14 13 13 13 13 13 13 13 13 13 13 13 13 12 12 11 10 8 5 2 2 3 3 9 9 9 9 11 13 13 13 13 13
21 20 18 19 19 17 16 16 15 14 14 13 13 13 13 13 13 13 13 13 13 12 12 12 11 10 8 6 3 1 3 5 8 12 11 10 11 12 12 12 12 12 12
20 20 17 16 16 17 16 16 15 14 13 13 13 13 13 13 13 13 13 12 12 12 11 11 10 9 7 5 2 1 4 6 4 7 11 8 11 12 12 11 11 11 11
18 18 17 16 14 13 13 15 15 14 14 13 13 13 14 14 14 14 12 11 12 11 10 9 9 8 7 4 2 2 4 5 5 9 8 9 12 12 12 11 11 11 10
17 16 16 15 14 13 13 14 14 14 13 13 12 14 13 9 10 9 13 12 11 10 9 8 7 7 6 5 4 3 4 0 7 7 7 12 12 12 11 11 10 10 9
16 16 14 15 14 13 11 11 9 9 9 8 8 9 6 5 6 10 12 11 10 9 8 7 6 6 6 4 4 4 2 2 6 7 8 13 12 11 11 10 9 9 9
14 14 15 14 11 12 9 9 6 5 6 6 8 7 5 5 6 8 6 6 6 7 5 6 5 4 2 1 1 2 2 3 4 7 8 12 11 11 10 9 9 8 8
14 14 14 14 10 9 10 8 7 7 5 5 6 7 5 3 4 5 4 5 4 3 2 2 2 2 2 2 2 1 2 3 5 6 7 12 11 10 10 9 8 8 7
12 13 13 12 10 8 8 6 7 7 7 6 5 5 5 4 4 4 3 2 3 3 3 1 2 2 1 1 1 2 2 5 6 7 6 11 10 9 9 9 8 7 7
14 13 13 12 10 8 7 4 5 6 6 6 6 6 6 4 4 4 4 2 2 3 2 2 3 2 1 1 2 2 2 3 5 7 7 7 10 9 9 8 8 8 7
13 12 12 11 11 9 8 6 5 5 7 6 5 6 5 5 5 4 4 2 2 3 3 2 2 2 2 2 1 1 1 1 4 6 7 6 6 8 8 8 8 7 7
12 12 12 13 12 10 8 6 5 5 6 5 6 5 5 5 6 4 4 3 3 3 2 2 1 1 1 1 1 1 1 1 3 4 5 5 5 6 7 9 8 8 8
12 12 12 11 13 11 9 7 5 4 5 5 6 6 5 6 6 4 3 3 3 2 2 2 2 1 1 1 2 2 2 2 2 3 4 5 5 6 6 8 9 9 8
11 12 12 11 11 11 8 6 4 5 5 5 5 6 7 6 6 4 4 4 3 2 2 2 2 1 1 1 2 2 1 2 3 2 3 4 5 7 7 7 6 6 9
11 12 12 12 11 10 8 8 7 6 5 5 5 8 7 7 6 4 4 5 3 2 2 3 2 2 2 1 0 1 1 2 2 3 2 2 4 5 6 7 5 5 5
12 12 12 13 13 11 8 7 6 7 5 5 5 7 8 7 7 6 5 5 4 3 3 2 2 2 2 2 1 1 2 1 2 3 3 3 3 4 4 7 5 5 4
12 12 12 13 13 12 10 7 6 5 4 5 6 6 7 7 7 5 6 5 4 4 3 3 3 3 2 2 2 1 1 1 2 2 3 3 3 2 2 3 5 5 5
11 11 10 11 11 11 11 10 11 9 8 7 6 6 7 7 7 6 6 5 4 3 4 4 5 3 3 2 2 1 1 0 0 1 2 2 4 3 2 2 3 4 4
11 11 10 11 11 11 11 11 10 8 7 6 7 8 7 6 7 7 6 5 4 3 4 3 3 3 2 3 2 2 2 1 3 2 2 3 3 3 3 3 2 3 4
10 10 10 11 11 12 12 11 10 10 8 8 9 8 7 6 5 7 7 5 5 4 4 3 3 3 2 1 1 1 2 2 2 2 2 4 4 3 4 3 3 3 3
Wind_Direction
128 130 134 131 130 128 125 123 120 118 114 109 104 101 98 96 94 94 94 95 96 95 93 91 91 90 88 89 89 91 92 93 94 94 93 91 88 88 94 102 98 92 94
129 131 134 132 132 130 127 124 122 121 118 114 110 107 104 101 99 98 98 98 98 97 95 93 93 92 93 94 95 97 100 102 105 105 101 91 85 85 88 89 90 97 97
127 133 135 133 133 131 129 127 126 124 120 117 114 111 109 106 104 102 101 100 99 99 98 96 95 95 96 98 100 104 108 113 119 124 115 100 89 86 89 92 96 98 97
129 138 137 135 134 133 132 131 129 126 123 120 117 114 112 111 108 105 104 103 101 100 100 99 97 97 98 100 104 108 114 123 134 142 112 100 94 92 93 96 98 98 98
134 136 135 139 136 135 134 132 130 128 126 123 120 118 115 113 111 108 106 104 103 102 101 100 99 99 100 102 104 106 110 118 134 114 93 90 91 98 98 99 101 101 100
136 134 138 140 138 137 136 134 132 131 129 127 123 120 117 115 113 111 107 106 105 103 101 100 101 101 102 104 103 99 84 53 66 101 100 100 100 104 104 103 104 103 102
135 132 140 141 139 139 139 138 136 135 133 130 127 124 121 119 116 113 109 107 105 104 102 102 104 104 104 106 105 89 17 340 107 100 95 95 101 105 105 104 104 104 104
132 133 138 142 141 141 141 141 139 138 136 133 131 128 124 122 118 115 113 110 108 106 105 104 106 108 109 108 103 34 333 325 108 106 102 103 109 108 108 108 107 106 105
133 134 142 145 144 145 144 143 141 140 138 137 134 132 129 126 122 119 116 114 113 112 111 110 110 112 116 121 126 325 327 335 89 111 110 111 116 114 112 112 112 110 109
134 139 148 148 147 149 147 146 145 144 143 141 139 138 135 132 130 128 124 119 117 117 117 118 120 122 128 141 175 263 310 316 105 101 107 118 121 120 117 114 114 113 112
139 143 149 148 152 154 151 148 150 149 149 147 145 146 146 148 142 143 122 126 124 125 126 129 134 140 147 170 206 250 289 337 98 101 107 124 127 125 123 120 119 118 117
147 151 151 152 159 160 153 146 158 158 156 163 153 160 174 153 139 127 129 134 136 137 140 147 154 169 187 178 197 225 246 122 110 110 119 131 130 130 129 128 126 124 123
153 157 153 155 163 159 143 155 163 153 157 170 161 169 164 140 133 128 142 142 150 159 165 155 179 203 190 144 177 205 163 117 106 110 129 134 134 135 135 134 134 133 133
161 162 155 157 162 152 148 160 160 154 166 166 162 169 154 150 139 141 148 157 163 166 165 170 167 130 131 155 139 80 97 102 107 113 138 141 139 142 143 144 145 145 144
163 162 155 155 157 149 142 163 166 156 164 156 161 169 155 153 143 139 138 157 159 148 155 154 103 90 70 65 105 94 78 98 116 122 134 148 148 151 154 154 155 156 157
169 165 158 157 153 146 148 168 153 155 150 152 161 166 165 148 137 136 144 163 140 137 130 137 126 137 171 88 78 81 62 94 118 130 140 152 156 159 163 165 167 170 172
171 165 157 157 153 156 158 171 162 154 154 154 152 156 162 144 139 144 148 162 134 120 118 132 131 152 166 151 135 124 118 117 122 131 144 153 158 166 170 172 174 177 181
168 161 161 166 161 164 163 175 165 160 154 148 145 150 161 143 150 152 152 152 137 136 145 135 169 164 115 132 153 182 126 120 138 145 153 157 157 163 175 182 183 186 189
165 162 163 164 164 167 166 174 172 157 150 150 149 153 162 158 162 165 142 129 153 148 154 175 148 134 144 180 191 175 182 160 148 175 157 156 154 155 164 181 187 190 196
166 164 166 166 164 165 165 169 163 163 160 156 153 152 162 165 166 166 137 141 166 151 132 104 122 127 159 220 239 158 174 152 170 165 180 168 160 168 168 166 178 194 201
167 167 169 170 166 165 167 172 169 172 169 163 159 156 167 167 162 171 148 152 168 150 151 154 148 167 209 195 216 153 192 190 172 154 193 176 169 169 160 164 178 177 184
172 172 173 173 171 172 172 170 169 165 170 169 161 158 170 167 163 177 152 166 164 152 167 169 155 183 214 183 194 178 178 200 224 194 177 182 178 165 172 175 169 169 175
178 179 183 178 174 174 168 166 164 156 170 166 159 163 175 169 171 176 165 170 167 173 168 178 177 206 220 208 206 203 210 185 178 181 208 175 148 161 191 165 174 167 176
182 181 177 175 174 172 169 175 173 171 177 173 167 167 174 174 175 176 174 169 171 171 159 195 187 204 205 223 214 201 195 73 183 148 220 169 165 182 216 202 183 168 177
181 179 177 176 177 175 177 178 178 178 179 170 169 165 171 177 181 180 173 164 171 176 169 193 168 206 207 224 226 206 212 212 241 205 192 176 188 185 192 203 198 181 179
177 176 174 176 178 176 178 181 182 181 179 174 172 166 171 174 183 180 172 167 178 180 168 178 171 201 229 247 284 264 205 208 232 241 199 192 195 194 180 176 185 197 191